This is the latest recevied weather packets stored in our database for station/object M0ADS. If no packets are shown the sender has not sent any weather packets the latest 10 day(s).
| Time | Temp. | Humidity | Pressure | Rain* | Wind** | Luminosity | Snow |
|---|---|---|---|---|---|---|---|
| 1777227307 | 16.67° C | 55% | 1022.6 hPa | 0 mm | - | - | - |
| 1777226407 | 16.67° C | 55% | 1022.7 hPa | 0 mm | - | - | - |
| 1777225507 | 17.22° C | 54% | 1022.7 hPa | 0 mm | - | - | - |
| 1777224607 | 17.22° C | 53% | 1022.7 hPa | 0 mm | - | - | - |
| 1777223707 | 17.78° C | 50% | 1022.8 hPa | 0 mm | - | - | - |
| 1777222807 | 17.78° C | 50% | 1022.8 hPa | 0 mm | - | - | - |
| 1777221907 | 18.33° C | 50% | 1022.8 hPa | 0 mm | - | - | - |
| 1777221007 | 18.33° C | 48% | 1022.8 hPa | 0 mm | - | - | - |
| 1777220107 | 18.89° C | 48% | 1022.8 hPa | 0 mm | - | - | - |
| 1777219204 | 18.89° C | 46% | 1022.8 hPa | 0 mm | - | - | - |
| 1777218305 | 18.89° C | 46% | 1022.8 hPa | 0 mm | - | - | - |
| 1777217404 | 20° C | 45% | 1022.9 hPa | 0 mm | - | - | - |
| 1777216505 | 19.44° C | 48% | 1022.9 hPa | 0 mm | - | - | - |
| 1777215602 | 19.44° C | 47% | 1023 hPa | 0 mm | - | - | - |
| 1777214702 | 19.44° C | 48% | 1023.1 hPa | 0 mm | - | - | - |
| 1777213802 | 19.44° C | 47% | 1023.2 hPa | 0 mm | - | - | - |
| 1777212902 | 18.89° C | 48% | 1023.3 hPa | 0 mm | - | - | - |
| 1777212000 | 18.89° C | 49% | 1023.5 hPa | 0 mm | - | - | - |
| 1777211098 | 18.33° C | 51% | 1023.5 hPa | 0 mm | - | - | - |
| 1777210198 | 18.33° C | 52% | 1023.6 hPa | 0 mm | - | - | - |
| 1777209298 | 18.33° C | 55% | 1023.7 hPa | 0 mm | - | - | - |
| 1777208398 | 17.78° C | 55% | 1023.9 hPa | 0 mm | - | - | - |
| 1777207498 | 17.78° C | 58% | 1024.1 hPa | 0 mm | - | - | - |
| 1777206595 | 16.67° C | 61% | 1024.1 hPa | 0 mm | - | - | - |
| 1777205696 | 15.56° C | 60% | 1024.3 hPa | 0 mm | - | - | - |
* Rain latest hour (hover to see other rain measurements)
** Current wind speed in m/s (hover to see current wind gust speed)